Location: Peterborough
(44.3091°N, 78.3197°W)
Time: 03:18:32
(UTC-04:00)

Tiros 1 - Pass Details

Date: 04 April 2023
Orbit: 627 x 661 km, 48.4° (Epoch: 09 June)

Event Time Altitude Azimuth Distance (km) Brightness Sun altitude
Rises 03:28:54 0° 244° (WSW) 2,961 - -31.9°
Reaches altitude 10° 03:31:13 10° 244° (WSW) 2,057 - -31.6°
Maximum altitude 03:35:59 87° 157° (SSE) 663 - -31.0°
Exits shadow 03:37:54 37° 69° (ENE) 1,027 8.5 -30.8°
Drops below altitude 10° 03:40:48 10° 68° (ENE) 2,077 10.5 -30.5°
Sets 03:43:09 0° 68° (ENE) 2,992 11.5 -30.2°
